Location: *
(35.2348°S, 91.3916°E)
Time: 15:49:50
(UTC+00:00)

CZ-4B R/B - Pass Details

Date: 23 October 2019
Orbit: 393 x 470 km, 97.6° (Epoch: 14 November)

Event Time Altitude Azimuth Distance (km) Brightness Sun altitude
Rises 21:47:51 0° 168° (SSE) 2,545 5.8 -14.9°
Reaches altitude 10° 21:49:57 10° 166° (SSE) 1,653 4.8 -14.5°
Maximum altitude 21:53:30 82° 79° (ENE) 478 1.5 -13.8°
Drops below altitude 10° 21:56:56 10° 350° (N) 1,595 3.8 -13.2°
Enters shadow 21:57:13 - 350° (N) 1,716 4.0 -13.2°
